Weather History for Muskegon, MI

Change the Weather History Date:

Sunday, October 6, 2013

  Actual Average Record
Temperature  
Mean Temperature 61 °F 54 °F  
Max Temperature 68 °F 63 °F 82 °F (1900)
Min Temperature 54 °F 45 °F 28 °F (2003)
Degree Days  
Heating Degree Days 4 11  
Month to date heating degree days 9 63  
Since 1 July heating degree days 151 236  
Cooling Degree Days 0 0  
Month to date cooling degree days 10 2  
Year to date cooling degree days 626 563  
Growing Degree Days 8 (Base 50)    
Moisture  
Dew Point 55 °F    
Average Humidity 72    
Maximum Humidity 93    
Minimum Humidity 51    
Precipitation  
Precipitation 0.22 in 0.11 in 0.70 in (1949)
Month to date precipitation 1.36 0.63  
Year to date precipitation 34.56 25.10  
Snow  
Snow 0.00 in 0.00 in T in (2001)
Month to date snowfall 0.0 0.0  
Since 1 July snowfall 0.0 0.0  
Since 1 September snowfall 0.0 0.0  
Snow Depth 0.00 in    
Sea Level Pressure  
Sea Level Pressure 29.73 in    
Wind  
Wind Speed 8 mph (SW)    
Max Wind Speed 21 mph    
Max Gust Speed 26 mph    
Visibility 9 miles    
Events Rain    
T = Trace of Precipitation, MM = Missing Value Source: NWS Daily Summary

Daily Weather History Graph

Daily Weather History Graph

Search for Another Location

Airport:

Trip Planner

Search our weather history database for the weather conditions in past years. The results will help you decide how hot, cold, wet, or windy it might be!

Date:

Astronomy

Oct. 06, 2013 Rise Set
Actual Time 7:48 AM EDT 7:16 PM EDT
Civil Twilight 7:19 AM EDT 7:45 PM EDT
Nautical Twilight 6:46 AM EDT 8:18 PM EDT
Astronomical Twilight 6:13 AM EDT 8:51 PM EDT
Moon 9:35 AM EDT (10/6) 8:11 PM EDT (10/6)
Length of Visible Light 12h 25m
Length of Day
11h 28m
Waxing Crescent, 3% of the Moon is Illuminated
Oct 6
Waxing Crescent
Oct 11
First Quarter
Oct 18
Full
Oct 26
Last Quarter
Nov 3
New

Hourly Weather History & Observations

Time (EDT) Temp. Dew Point Humidity Pressure Visibility Wind Dir Wind Speed Gust Speed Precip Events Conditions
12:19 AM 68.0 °F 64.4 °F 88% 29.78 in 10.0 mi South 15.0 mph - N/A   Mostly Cloudy
12:30 AM 68.0 °F 64.4 °F 88% 29.79 in 10.0 mi South 15.0 mph 23.0 mph N/A   Overcast
12:55 AM 66.9 °F 64.0 °F 90% 29.78 in 10.0 mi South 12.7 mph - N/A   Mostly Cloudy
1:55 AM 68.0 °F 64.0 °F 87% 29.76 in 10.0 mi South 11.5 mph - N/A   Overcast
2:55 AM 68.0 °F 64.9 °F 90% 29.75 in 10.0 mi South 12.7 mph - N/A   Overcast
3:37 AM 68.0 °F 64.4 °F 88% 29.75 in 10.0 mi South 9.2 mph - N/A   Overcast
3:48 AM 68.0 °F 64.4 °F 88% 29.75 in 10.0 mi South 11.5 mph - N/A   Overcast
3:55 AM 68.0 °F 64.0 °F 87% 29.74 in 10.0 mi South 11.5 mph - N/A   Overcast
4:19 AM 68.0 °F 64.4 °F 88% 29.74 in 10.0 mi South 10.4 mph - N/A   Overcast
4:47 AM 68.0 °F 64.4 °F 88% 29.73 in 10.0 mi South 12.7 mph - N/A   Overcast
4:55 AM 68.0 °F 64.0 °F 87% 29.72 in 10.0 mi South 15.0 mph 19.6 mph N/A   Overcast
5:55 AM 68.0 °F 64.0 °F 87% 29.71 in 10.0 mi South 11.5 mph - 0.00 in   Overcast
6:17 AM 68.0 °F 64.4 °F 88% 29.73 in 9.0 mi SSW 12.7 mph - 0.00 in Rain Light Rain
6:55 AM 66.0 °F 63.0 °F 90% 29.71 in 10.0 mi SW 11.5 mph - 0.03 in   Overcast
6:59 AM 66.2 °F 62.6 °F 88% 29.72 in 10.0 mi SW 9.2 mph - N/A   Overcast
7:55 AM 59.0 °F 55.9 °F 90% 29.73 in 10.0 mi West 15.0 mph 20.7 mph 0.03 in Rain Light Rain
8:17 AM 59.0 °F 55.4 °F 88% 29.73 in 10.0 mi West 10.4 mph - 0.00 in   Overcast
8:55 AM 59.0 °F 55.9 °F 90% 29.74 in 10.0 mi WSW 9.2 mph - 0.00 in   Overcast
9:30 AM 57.2 °F 53.6 °F 88% 29.74 in 5.0 mi WSW 8.1 mph - 0.00 in Rain Light Rain
9:47 AM 57.2 °F 53.6 °F 88% 29.74 in 6.0 mi WSW 6.9 mph - 0.00 in   Overcast
9:55 AM 57.0 °F 54.0 °F 89% 29.73 in 5.0 mi WSW 8.1 mph - 0.00 in Rain Light Rain
10:12 AM 57.2 °F 51.8 °F 82% 29.73 in 10.0 mi WSW 5.8 mph - 0.00 in   Overcast
10:55 AM 55.9 °F 52.0 °F 87% 29.73 in 3.0 mi West 6.9 mph - 0.02 in Rain Rain
11:03 AM 55.4 °F 53.6 °F 94% 29.74 in 2.5 mi WSW 8.1 mph - 0.03 in Rain Rain
11:06 AM 55.4 °F 51.8 °F 88% 29.74 in 4.0 mi WSW 8.1 mph - 0.03 in Rain Light Rain
11:24 AM 55.4 °F 51.8 °F 88% 29.74 in 2.5 mi West 6.9 mph - 0.06 in Rain Rain
11:30 AM 55.4 °F 51.8 °F 88% 29.75 in 4.0 mi West 8.1 mph - 0.07 in Rain Light Rain
11:44 AM 55.4 °F 51.8 °F 88% 29.75 in 2.5 mi WSW 10.4 mph - 0.10 in Rain Rain
11:52 AM 55.4 °F 51.8 °F 88% 29.75 in 4.0 mi West 6.9 mph - 0.11 in Rain Rain
11:53 AM 55.0 °F 51.1 °F 86% 29.75 in 4.0 mi West 5.8 mph - 0.12 in Rain Rain
12:55 PM 55.9 °F 51.1 °F 84% 29.75 in 10.0 mi SW 6.9 mph - 0.01 in Rain Light Rain
1:55 PM 57.0 °F 51.1 °F 81% 29.72 in 10.0 mi Calm Calm - 0.01 in   Overcast
2:55 PM 59.0 °F 52.0 °F 78% 29.70 in 10.0 mi South 5.8 mph - N/A   Overcast
3:26 PM 60.8 °F 51.8 °F 72% 29.69 in 10.0 mi SSW 8.1 mph - N/A   Mostly Cloudy
3:55 PM 61.0 °F 51.1 °F 70% 29.69 in 10.0 mi SW 8.1 mph - N/A   Overcast
4:13 PM 60.8 °F 51.8 °F 72% 29.69 in 10.0 mi WSW 8.1 mph - N/A   Overcast
4:42 PM 60.8 °F 51.8 °F 72% 29.68 in 10.0 mi WSW 5.8 mph - N/A   Mostly Cloudy
4:55 PM 61.0 °F 46.9 °F 60% 29.68 in 10.0 mi WSW 8.1 mph - N/A   Mostly Cloudy
5:55 PM 61.0 °F 43.0 °F 52% 29.70 in 10.0 mi SW 9.2 mph - N/A   Scattered Clouds
6:55 PM 57.0 °F 43.0 °F 59% 29.71 in 10.0 mi SW 5.8 mph - N/A   Scattered Clouds
7:55 PM 54.0 °F 46.0 °F 75% 29.71 in 10.0 mi Calm Calm - N/A   Mostly Cloudy
8:55 PM 55.9 °F 46.9 °F 72% 29.70 in 10.0 mi SW 3.5 mph - N/A   Overcast
9:55 PM 55.9 °F 48.0 °F 75% 29.70 in 10.0 mi South 3.5 mph - N/A   Overcast
10:55 PM 55.9 °F 48.9 °F 77% 29.70 in 10.0 mi SW 5.8 mph - 0.00 in   Overcast
11:55 PM 55.9 °F 46.9 °F 72% 29.71 in 10.0 mi WSW 15.0 mph 21.9 mph N/A   Overcast